FENGYUN 1C DEB

Satellite information

Favourite Embed

Satellite Type and Status

DEBRISIN ORBIT

Key statistics

Satellite FENGYUN 1C DEB at a glance.

Uptime

9617

Days in orbit

Revolutions

≈ 14.3

Per day

Orbit

SSO

Sun Synchronous Orbit

Inclination

99.2

Latest

Satellite identification and parameters

Extended collection of information and parameters for FENGYUN 1C DEB.

Object identification

Identified? True

Debris? True

Object name: FENGYUN 1C DEB

International designator: 1999-025ABC

Object number (NORAD): 30341

Object ID (CCSDS): 30341

Country: PEOPLES REPUBLIC OF CHINA (PRC)

Current information (Y/N): Y

RCS size: SMALL

Orbital parameters

Period: 100.544 minutes

Inclination: 99.2208 deg

SMA: 7162.487 km

Apoapsis: 821.738 km

Periapsis: 746.966 km

RAAN: 131.512 deg

Eccentricy: 0.0052197

Argument of periapsis: 345.9604 deg

Mean anomaly: 78.6621 deg

Mean motion: 14.32210845 rev/day

Mean motion (dot): 0.00008937 rev/day2

B* drag term: 0.0032812113 1/REarth

Two-line elements (TLE)

Creation date: Sept. 7, 2025, 3:09 a.m.

Reference frame: TEME

Reference center: EARTH

Epoch: Sept. 6, 2025, 4:18 p.m. UTC

TLE line 0: 0 FENGYUN 1C DEB

TLE line 1: 1 30341U 99025ABC 25249.67931535 .00008937 00000-0 32812-2 0 9992

TLE line 2: 2 30341 99.2208 131.5120 0052197 345.9604 78.6621 14.32210845956911

Live tracking on map

Real-time ground track for satellite FENGYUN 1C DEB.

In-orbit conjunctions

A list of the most updated potential collisions computed for object FENGYUN 1C DEB.

Target Orbit TCA Probability of collision Miss distance Type
IRIDIUM 69 LEO 2025-07-31 18:47:43 0.000319504 891.0 (m) PAYLOAD
CZ-6A DEB LEO 2024-11-11 05:05:30 0.0001371392 164.0 (m) DEBRIS
CZ-6A DEB LEO 2024-10-14 19:42:37 0.0001390691 182.0 (m) DEBRIS

Associated space launch

Chinese polar orbiting meteorological satellite

FENGYUN 1C DEB was lifted into orbit during the mission ‘Long March 4B | Feng Yun 1C’, on board a Long March 4B space rocket.

The launch took place on May 10, 1999, 1:33 a.m. from Launch Complex 7.

For more information about the launch, click the button.

Launch to space Long March 4B | Feng Yun 1C
Long March 4B | Feng Yun 1C

Agency: N/A

Status: Launch Successful

Launch date: May 10, 1999, 1:33 a.m. UTC

Rocket: Long March 4B

Launch pad: Launch Complex 7

Location: Taiyuan Satellite Launch Center, People's Republic of China

...

Latest news about this satellite

There are no fresh news available about this satellite. Check back as we update our databases every day.


Newsletter sign-up

Weekly statistics, charts and insights to help you stay on top of the space industry.